Location: *
(50.2903°S, 172.5375°W)
Time: 23:17:12
(UTC+00:00)

ADEOS II - Pass Details

Date: 17 November 2019
Orbit: 799 x 801 km, 98.5° (Epoch: 15 December)

Event Time Altitude Azimuth Distance (km) Brightness Sun altitude
Exits shadow 13:23:40 19° 356° (N) 1,816 3.4 -15.1°
Maximum altitude 13:27:22 59° 281° (W) 936 2.2 -14.8°
Drops below altitude 10° 13:32:39 10° 201° (SSW) 2,415 5.1 -14.4°
Sets 13:35:03 0° 197° (SSW) 3,353 5.9 -14.2°
